Theta_e
319 322 322 322 324 328 332 333 332 331 332 333 332 331 330 330 330 330 330 330 327 326 326 326 326 325 324 323 323 320 318 318 325 334 337 339 338 337 328 333 338 333 329
317 317 318 320 321 323 324 328 331 332 332 333 332 332 332 332 331 330 331 331 331 329 326 327 327 326 325 324 322 322 321 317 318 323 335 336 338 337 332 329 336 336 333
315 315 315 316 317 317 320 323 327 329 329 329 331 331 331 331 330 330 330 330 330 329 328 327 326 328 328 325 325 322 320 320 317 318 324 335 339 338 337 328 334 336 335
314 314 314 315 315 315 315 315 320 323 325 327 328 327 326 326 326 326 326 327 329 330 330 328 327 325 326 331 326 325 321 319 317 317 318 336 339 338 336 336 329 334 336
311 311 312 312 312 313 314 313 313 313 316 318 320 320 321 322 323 323 323 324 324 323 322 323 325 327 326 326 326 324 324 331 327 316 316 324 337 338 335 336 332 329 334
309 308 308 307 307 308 309 310 311 312 312 312 312 313 313 314 314 315 316 320 321 323 324 324 323 321 321 323 325 327 323 324 326 332 332 324 327 335 334 334 336 329 332
307 306 306 306 306 307 307 307 307 308 308 308 308 308 308 309 309 309 309 310 312 313 315 318 321 324 323 322 322 323 324 322 324 325 331 331 317 330 334 333 334 333 330
305 305 305 306 306 306 306 305 304 304 303 302 302 302 302 302 302 302 302 302 303 305 308 310 313 316 319 322 322 319 321 321 320 322 325 328 330 317 332 334 332 334 330
305 305 305 305 306 306 305 305 303 302 302 302 302 302 302 302 302 302 301 301 301 301 301 302 304 308 312 315 318 321 322 320 320 320 321 326 325 325 319 333 334 333 334
304 304 305 305 305 304 303 302 301 301 301 301 302 302 302 302 302 301 301 301 301 301 301 301 301 301 303 307 312 315 316 319 323 323 325 328 325 324 325 320 332 333 333
304 304 304 304 303 302 301 301 301 301 301 301 301 301 301 301 301 301 301 300 300 300 300 300 300 300 300 300 302 306 312 318 316 318 323 326 325 322 325 325 321 332 333
304 304 304 303 302 301 300 300 300 300 300 301 301 301 301 301 301 300 300 300 300 299 299 299 299 299 299 300 300 300 301 305 312 319 318 319 322 321 323 325 324 322 331
305 304 303 302 301 300 299 299 299 299 300 300 300 301 301 300 300 300 300 300 299 299 299 298 299 299 298 298 299 299 300 300 300 303 310 317 317 319 321 328 327 323 322
305 303 302 301 300 299 299 299 299 299 299 300 300 300 300 300 300 300 300 299 298 298 298 297 298 298 298 298 298 298 298 299 299 300 300 302 308 316 318 320 327 327 323
304 302 301 300 300 299 298 298 299 299 299 299 299 299 299 300 300 299 298 297 296 296 296 296 297 297 297 298 298 298 298 298 298 298 299 300 301 302 310 317 321 328 327
303 302 301 300 300 299 298 298 298 298 298 298 298 298 299 300 299 298 297 296 296 295 295 295 295 296 296 296 297 297 298 298 298 299 298 299 299 300 300 307 317 321 327
304 302 301 300 299 298 298 298 298 298 297 298 298 299 299 298 297 296 295 295 294 294 294 294 294 294 294 295 295 296 296 297 297 298 298 299 299 299 300 300 303 317 319
303 302 300 300 299 297 297 297 297 297 297 298 299 298 297 296 295 295 294 293 293 293 293 293 293 293 293 293 294 294 295 295 296 297 297 298 299 299 299 299 300 305 317
303 301 300 299 298 297 296 296 296 296 297 298 298 298 297 295 294 294 293 292 291 292 292 292 292 291 291 292 292 293 293 294 295 295 296 297 298 299 299 299 299 299 308
302 300 299 299 297 296 295 295 295 296 296 297 297 297 295 294 293 292 292 292 290 291 290 290 290 290 290 290 291 292 293 294 294 296 296 296 296 297 298 298 298 299 299
300 299 298 298 297 295 295 294 295 295 296 297 297 296 294 293 292 292 291 291 290 290 290 289 289 289 289 289 290 292 293 294 294 295 296 297 296 296 296 296 297 298 298
301 299 298 297 296 295 295 294 294 295 295 296 296 295 294 293 292 291 290 290 289 289 289 289 288 288 288 288 288 288 292 293 296 296 294 294 295 296 298 300 299 298 297
301 300 298 297 296 295 294 294 294 294 295 295 295 294 293 292 291 290 289 289 289 289 289 288 288 288 287 287 287 286 289 291 289 292 292 292 293 294 296 296 295 299 297
303 300 298 297 296 295 294 293 293 294 294 294 294 293 292 291 290 288 288 289 289 289 289 289 288 287 287 287 286 286 286 286 288 290 291 290 290 291 292 292 293 293 294
304 302 299 296 295 294 293 293 292 293 293 293 293 292 291 290 289 288 289 289 289 289 288 288 287 287 287 286 286 285 284 284 284 284 286 289 289 290 291 292 292 295 294
302 301 299 296 295 294 293 292 291 292 291 291 290 289 289 289 289 289 289 289 288 288 288 287 287 286 286 286 285 284 283 282 285 285 285 286 286 287 287 290 293 295 294
Wind_Speed
2 1 1 1 1 1 3 2 1 4 4 3 3 4 3 4 4 4 5 6 7 7 9 10 10 10 11 10 11 10 10 11 12 12 11 11 11 12 10 10 9 8 9
4 1 3 3 3 4 3 5 6 6 7 7 8 7 7 6 6 7 8 9 9 8 9 10 11 11 11 12 10 11 13 12 13 15 14 15 12 13 11 11 10 8 10
4 0 3 5 5 5 7 7 7 8 9 10 10 10 10 10 11 10 10 11 11 12 12 12 13 13 13 13 14 13 12 14 15 15 16 16 13 14 14 12 12 11 11
4 1 3 4 4 6 7 8 9 10 11 11 10 10 10 11 12 13 13 13 14 14 14 14 14 16 15 14 15 15 14 14 15 16 16 13 14 16 15 14 13 13 12
2 2 4 3 3 4 5 6 8 10 11 12 13 14 13 14 15 14 15 15 17 18 19 19 19 18 18 18 18 18 16 14 16 15 16 17 14 16 17 17 15 14 14
5 6 5 2 0 1 1 3 4 5 6 7 8 9 10 12 14 15 16 18 20 20 20 21 21 22 22 21 21 20 21 19 18 14 15 17 20 19 19 19 18 16 15
9 7 4 2 2 2 2 2 3 3 4 5 6 6 8 10 11 13 14 16 18 20 22 23 24 23 23 24 23 23 23 23 23 22 16 17 20 22 21 20 20 19 18
11 8 5 4 4 4 5 5 4 4 5 5 6 6 8 9 11 13 14 17 19 20 20 21 23 24 25 24 26 27 26 26 26 25 24 21 19 22 23 23 22 23 21
12 9 7 6 6 6 6 7 7 7 6 7 7 8 9 11 13 14 16 17 19 20 21 23 23 24 26 27 28 28 28 29 28 28 28 25 25 22 24 26 25 25 25
15 12 10 9 9 8 8 7 6 6 5 5 6 8 9 11 13 14 15 17 19 21 22 24 23 25 25 25 28 30 30 29 29 28 24 22 29 26 25 27 28 27 28
19 16 15 13 12 10 9 7 6 4 4 3 4 5 7 9 11 13 14 16 18 19 20 21 23 24 23 26 28 28 29 30 33 33 29 22 28 30 29 28 30 30 30
23 21 18 16 14 12 11 9 7 6 4 3 3 5 7 9 11 14 15 17 18 18 18 19 20 21 22 23 25 26 29 31 32 34 35 36 35 33 31 31 30 34 33
25 23 20 18 17 15 12 10 8 5 4 3 4 6 8 11 13 16 19 20 20 20 21 21 21 21 20 21 22 23 25 27 31 34 35 39 39 39 36 30 32 33 37
29 25 23 20 17 15 13 10 8 6 5 5 6 7 10 12 15 18 20 21 21 21 22 23 24 25 25 24 24 23 24 26 28 32 36 39 39 42 42 39 33 34 37
30 27 25 21 19 16 14 11 10 9 7 7 8 9 11 14 17 19 21 22 23 24 24 24 25 26 26 28 29 30 28 27 27 30 34 35 37 40 43 43 40 35 37
32 30 27 24 21 18 15 14 12 10 9 8 8 10 12 15 18 20 22 24 25 26 27 28 28 29 30 30 29 30 32 33 32 32 33 35 36 36 41 44 44 43 38
36 32 30 27 23 20 18 17 14 11 9 8 9 11 13 15 18 19 21 23 25 27 29 31 32 32 32 33 34 35 35 35 36 36 36 36 36 39 38 43 45 46 46
36 36 32 29 26 23 22 19 16 13 11 9 9 11 13 16 18 20 22 23 23 26 29 31 32 34 35 37 38 38 39 40 40 40 40 40 40 37 42 41 44 48 48
38 36 34 30 28 25 23 19 16 14 11 9 9 10 13 16 18 20 22 24 24 27 29 31 32 35 37 39 39 41 43 43 43 43 43 43 42 42 40 43 45 46 51
40 38 35 33 31 27 24 20 18 16 14 11 10 11 14 17 19 21 23 24 25 28 30 32 34 35 36 38 42 47 45 46 42 37 39 40 39 39 40 40 44 50 49
42 40 38 36 33 29 26 23 21 19 17 14 12 12 14 17 20 23 24 24 26 29 31 32 34 34 35 37 43 47 52 32 31 34 24 29 37 41 44 45 40 44 51
44 43 41 39 35 31 28 26 24 22 19 15 13 13 15 18 21 22 23 23 27 29 31 32 33 35 35 33 34 36 27 48 18 25 44 47 41 39 38 35 37 41 46
47 47 45 41 38 34 31 29 27 25 21 17 15 16 17 19 21 22 22 23 27 30 32 33 35 35 35 34 30 22 17 18 48 39 32 43 36 37 34 41 46 45 49
45 47 46 42 40 36 34 32 30 26 22 19 17 18 19 19 20 21 22 24 28 31 32 34 35 35 35 36 31 30 27 29 20 47 51 46 53 49 54 54 51 56 58
35 44 46 45 42 39 36 33 30 27 23 21 19 19 19 19 20 21 23 27 30 31 32 34 35 35 35 36 34 31 29 29 30 33 49 62 44 47 49 54 50 47 52
27 36 44 47 45 42 39 35 32 27 24 21 20 18 19 20 21 22 24 27 29 31 32 34 36 36 36 37 37 35 34 29 26 29 36 53 61 60 51 51 46 49 50
Wind_Direction
199 234 13 334 297 195 183 143 213 222 231 236 258 261 256 265 273 280 287 295 306 312 320 322 326 327 322 314 302 292 290 289 278 279 274 275 282 285 289 291 277 270 248
195 231 346 312 281 263 246 223 213 220 218 219 226 235 238 243 251 262 267 272 282 291 296 308 315 313 317 319 309 298 290 280 281 277 275 271 267 275 282 286 283 257 248
190 273 284 295 296 281 267 255 252 242 247 244 244 253 255 255 257 256 258 267 272 277 280 285 292 304 308 308 310 305 294 287 279 273 270 274 270 268 277 282 279 269 251
193 200 300 276 284 277 269 263 261 266 269 268 266 268 272 276 278 277 281 280 280 278 278 279 280 281 289 297 297 300 299 293 283 274 270 273 271 268 265 275 273 270 255
200 258 277 293 297 281 276 275 276 275 276 278 279 279 278 277 277 282 283 283 281 280 279 277 276 276 274 275 280 285 287 291 287 280 269 265 266 269 266 265 267 263 256
193 202 202 153 97 37 300 293 285 277 276 278 282 284 282 282 283 281 279 277 278 280 281 281 280 278 277 276 274 275 277 278 278 289 285 268 262 259 263 266 264 260 257
195 187 170 203 263 300 299 292 290 292 294 286 285 289 292 293 294 294 290 284 279 277 277 277 277 278 280 277 272 270 270 270 272 275 279 277 261 258 260 258 263 260 253
192 193 200 227 255 277 291 291 289 291 292 298 299 301 304 305 306 304 301 298 296 295 289 282 276 274 271 270 272 272 271 270 270 270 273 272 268 259 258 258 255 258 254
202 206 217 233 256 264 270 278 288 300 309 316 324 331 331 329 326 322 317 311 308 302 297 291 288 283 278 273 270 269 272 273 272 271 271 273 271 262 254 256 256 255 253
208 212 222 236 246 251 256 262 272 284 302 320 333 335 332 328 324 321 319 314 313 312 308 303 297 289 283 279 276 273 268 268 271 268 272 270 268 266 262 252 253 253 252
210 216 222 229 232 236 240 240 243 245 260 291 316 327 327 326 324 321 320 322 322 318 315 312 308 305 299 290 282 279 276 270 268 268 268 270 269 264 261 258 250 251 251
214 217 220 224 226 227 228 230 230 235 247 280 314 331 336 334 332 327 325 325 324 323 322 317 314 309 306 302 296 290 282 278 275 270 268 265 264 263 263 258 254 249 250
218 218 220 221 222 222 222 223 227 238 263 289 316 326 332 337 337 335 331 328 326 326 325 324 323 320 319 314 309 302 294 286 279 276 271 268 269 267 260 262 257 250 250
219 221 221 221 222 222 223 229 236 243 250 274 297 318 330 334 337 334 330 326 325 325 326 326 325 324 321 319 315 310 304 297 290 283 277 273 269 268 266 256 256 254 248
221 221 223 224 224 224 226 229 237 247 262 283 304 316 327 332 331 329 327 324 325 329 330 328 325 323 321 319 318 315 310 303 297 290 285 281 275 270 266 263 252 251 251
221 223 224 224 225 225 227 232 238 245 259 277 299 317 325 326 326 326 326 324 325 327 328 326 324 322 321 318 314 312 310 307 302 297 293 289 284 274 268 265 260 251 247
223 224 224 225 225 224 226 232 234 242 256 281 304 314 321 326 323 319 318 320 323 327 326 325 323 322 320 318 317 315 311 309 306 303 299 293 290 285 274 265 262 259 251
224 224 222 223 225 224 226 229 231 239 253 272 297 314 320 316 313 315 317 318 322 323 323 322 321 321 320 320 318 316 313 311 307 305 301 298 293 288 284 275 262 259 256
225 223 223 224 225 226 227 228 231 236 244 260 282 304 309 309 312 315 316 315 322 325 324 322 322 322 322 321 318 316 314 310 308 307 302 299 296 292 286 279 274 260 256
225 224 223 225 226 226 227 228 229 235 240 253 275 298 306 309 312 311 311 316 326 327 326 323 323 323 323 321 318 317 315 312 310 306 307 302 297 294 291 284 275 270 258
225 224 223 225 225 225 226 227 229 233 238 250 268 291 301 305 306 308 312 321 326 323 320 320 320 321 320 320 321 317 318 326 313 313 302 303 302 298 294 289 286 276 268
230 227 225 226 226 227 229 231 232 233 238 250 268 286 294 299 302 308 314 324 323 319 318 318 319 320 320 321 322 326 323 315 307 283 296 297 293 289 291 290 288 279 273
229 230 228 227 227 228 229 231 232 234 241 253 268 282 290 298 306 312 314 321 318 316 317 317 317 317 314 313 314 310 315 298 311 305 287 300 298 287 279 278 281 274 275
233 232 231 228 227 228 230 231 233 235 241 252 264 278 290 301 307 307 312 318 316 315 314 312 311 309 308 306 304 300 288 285 300 307 293 289 294 285 287 285 277 275 276
233 234 231 228 228 229 232 233 233 237 243 253 265 277 289 299 302 304 317 317 312 309 308 307 304 301 301 299 296 291 283 278 269 264 284 294 287 279 274 277 281 273 275
230 234 231 228 227 229 231 232 234 239 246 256 270 283 294 302 307 311 316 312 310 307 304 301 297 296 297 294 291 285 279 272 267 264 263 275 283 283 276 269 267 271 272